Temp
87 97 107 102 87 88 81 85 94 90 91 97 98 95 91 92 86 70 98 102 103 97 91 88 80 81 81 80 80 80 80 80 80 81 81 81 80 80 81 81 81 81 81 81 81 81 81 81 81
102 107 105 98 84 72 82 91 86 93 97 99 97 96 94 86 95 93 94 101 102 97 92 89 80 80 80 80 79 79 80 80 80 81 81 80 80 80 80 81 81 81 81 82 81 81 81 81 81
97 107 97 95 93 81 81 90 92 96 99 97 95 99 93 85 94 95 99 102 101 98 96 86 80 80 80 80 79 80 80 80 80 81 81 80 80 80 80 81 81 81 82 82 81 81 81 81 81
104 106 102 89 86 88 89 92 94 95 99 99 98 90 92 95 95 98 102 103 101 99 94 82 80 80 81 80 79 79 80 80 81 81 81 80 80 80 80 80 81 81 81 81 82 81 81 81 81
106 101 90 89 88 91 95 96 96 94 95 96 97 86 84 93 98 100 101 102 100 99 95 86 79 80 80 80 80 79 79 80 80 80 80 80 80 79 80 80 80 81 81 82 81 81 81 80 80
96 100 86 83 88 92 95 98 97 95 97 94 94 87 86 97 97 99 103 103 102 99 96 88 81 80 80 79 80 80 79 79 80 80 80 80 79 79 79 79 80 80 80 80 81 81 80 80 79
92 93 87 87 87 89 92 99 93 92 77 92 98 85 89 92 97 100 101 102 102 98 92 87 90 83 80 79 79 79 79 79 79 79 79 79 79 79 79 79 79 80 80 80 80 80 80 79 79
98 95 88 89 86 85 94 95 99 77 85 98 100 87 83 90 97 100 102 101 102 100 98 95 93 95 92 88 79 79 79 79 79 79 79 79 79 79 78 79 79 80 80 80 80 79 79 79 79
101 87 85 89 87 86 95 92 99 97 90 91 92 90 91 95 99 99 99 99 99 100 101 102 101 99 100 97 86 79 79 79 79 79 78 80 90 92 90 86 82 80 79 79 79 79 79 79 79
93 86 89 97 96 87 89 92 95 92 88 87 88 92 95 98 98 97 97 96 97 97 97 100 99 98 99 98 91 92 92 92 91 92 90 91 94 95 94 87 81 80 79 79 79 79 79 80 93
93 87 96 95 94 95 87 85 92 86 81 82 84 88 94 95 95 95 96 97 98 98 97 98 93 93 97 99 98 97 97 95 94 92 92 93 95 96 96 96 96 90 83 92 89 89 88 93 99
88 94 96 92 93 89 83 86 81 82 81 87 86 86 85 84 85 86 86 88 89 92 94 96 95 91 91 95 97 98 97 97 96 95 91 89 91 92 93 96 97 97 98 97 96 98 98 96 96
89 93 95 91 90 88 86 81 78 78 82 84 83 82 81 80 80 81 82 82 82 83 85 88 93 90 89 89 94 94 95 96 95 95 94 93 93 92 94 94 95 96 98 98 97 98 97 96 97
93 94 94 89 87 87 82 80 80 79 82 79 79 77 77 76 77 76 76 75 76 76 79 82 85 82 83 88 88 90 93 94 94 94 95 93 91 91 92 93 94 95 97 98 98 97 96 95 96
94 84 87 86 85 82 84 73 72 79 81 77 76 75 74 74 75 73 73 72 72 74 74 75 78 78 78 82 83 90 91 95 94 95 93 91 90 89 88 90 92 94 95 96 95 94 94 94 96
88 86 76 84 86 85 81 65 72 78 77 74 75 75 73 71 72 73 73 71 71 71 70 72 75 75 75 77 82 86 92 92 93 94 94 93 92 89 87 89 91 94 94 94 94 94 93 94 94
84 76 78 76 87 86 83 67 72 77 75 72 74 74 74 72 71 71 72 72 70 70 69 69 70 70 72 74 79 84 82 86 84 89 92 88 91 91 88 89 90 91 92 92 92 93 92 91 91
77 77 83 78 80 82 78 69 72 74 74 72 72 72 72 71 70 71 71 71 71 70 69 68 69 67 69 74 75 83 77 78 81 77 77 78 79 78 81 89 88 89 89 90 91 89 92 91 91
86 83 80 76 80 77 72 68 70 73 74 72 72 71 70 69 72 72 71 71 70 69 68 67 67 65 67 69 69 70 70 75 74 76 72 75 72 74 75 79 77 74 83 86 87 88 85 88 89
82 79 76 76 77 76 71 67 70 71 71 72 71 70 70 70 70 70 70 70 69 67 67 66 65 65 65 67 67 68 69 66 68 69 71 72 69 70 69 68 68 70 71 74 79 82 84 87 89
79 78 76 73 73 76 71 64 64 69 70 70 70 71 70 68 68 68 68 69 70 67 67 66 65 65 65 65 69 70 72 73 72 72 73 69 69 71 67 65 67 63 63 64 67 70 74 77 81
75 85 82 75 69 65 73 65 63 66 66 68 68 69 69 69 69 69 68 68 69 69 69 67 66 65 66 65 65 63 65 65 68 70 71 70 72 71 70 65 63 59 60 63 63 64 65 71 75
78 87 81 77 71 74 68 67 68 68 63 65 67 67 68 69 68 67 68 68 71 71 69 67 66 65 65 64 63 64 62 65 68 68 65 68 69 71 72 70 68 63 60 61 63 62 65 66 68
87 83 81 78 73 63 72 68 63 65 68 66 66 66 66 68 69 69 70 70 69 72 70 68 65 64 65 64 63 62 61 62 63 63 65 66 68 70 69 67 65 65 65 63 61 65 65 64 67
82 75 64 60 62 61 76 71 70 71 74 69 66 66 67 69 69 69 68 69 69 68 69 69 65 64 65 64 64 63 62 62 62 62 63 61 65 66 65 63 62 63 62 63 65 65 64 65 65
77 76 67 55 59 66 76 65 64 68 68 67 67 67 67 67 68 67 67 68 69 68 67 68 65 65 65 65 64 64 64 65 65 62 62 63 62 63 62 61 61 61 61 62 62 64 65 65 66
76 71 80 69 72 67 66 58 62 64 63 64 64 65 63 64 65 65 66 67 67 67 66 66 65 66 65 65 65 64 64 62 62 62 61 62 60 61 60 59 58 58 59 58 58 60 60 63 64
77 83 69 71 55 54 64 60 59 56 59 62 61 62 61 63 64 65 66 65 67 67 68 67 67 66 67 66 65 65 64 63 63 62 59 58 58 58 57 56 55 56 56 56 54 54 57 58 61
75 73 73 73 69 57 54 54 66 62 63 60 62 62 62 63 64 65 66 66 67 68 69 67 66 67 67 66 65 65 63 62 62 61 61 59 58 57 55 54 53 53 53 54 52 51 51 52 54
76 72 72 63 61 68 65 50 68 67 65 63 61 61 62 63 64 65 65 65 65 65 66 66 65 66 67 66 65 64 63 62 60 60 60 60 58 57 55 54 52 52 51 50 49 49 49 48 48
MSLP
1008.67 1007.60 1006.15 1005.04 1003.65 1000.96 1000.27 1000.53 1000.35 1000.59 1000.79 1001.89 1002.18 1002.42 1003.03 1003.96 1004.38 1006.41 1007.85 1008.03 1008.50 1010.44 1012.16 1013.21 1013.91 1014.26 1014.60 1014.85 1015.09 1015.30 1015.47 1015.57 1015.66 1015.76 1015.92 1016.02 1016.18 1016.20 1016.26 1016.41 1016.50 1016.43 1016.42 1016.43 1016.44 1016.50 1016.53 1016.50 1016.40
1007.51 1005.90 1004.93 1003.12 1001.32 1001.12 1000.23 1000.38 1000.35 1000.89 1001.47 1002.16 1002.70 1002.73 1003.06 1004.97 1005.93 1007.07 1007.90 1008.38 1008.98 1010.65 1012.14 1013.24 1014.28 1014.67 1015.02 1015.29 1015.49 1015.62 1015.71 1015.83 1015.94 1016.18 1016.25 1016.31 1016.34 1016.48 1016.57 1016.63 1016.70 1016.70 1016.71 1016.67 1016.63 1016.68 1016.75 1016.67 1016.51
1007.80 1005.69 1004.01 1000.67 999.41 999.69 1000.12 1000.83 1000.60 1001.18 1001.57 1001.67 1002.10 1003.15 1004.53 1006.54 1007.12 1007.46 1008.60 1008.94 1009.69 1010.95 1012.23 1014.00 1014.90 1015.30 1015.60 1015.87 1016.05 1016.11 1016.14 1016.22 1016.27 1016.37 1016.54 1016.82 1016.77 1016.77 1016.82 1016.92 1016.99 1016.95 1016.90 1016.86 1016.91 1016.85 1016.87 1016.77 1016.65
1005.98 1003.77 1002.63 1000.31 999.46 1000.77 1000.62 1000.97 1001.35 1001.03 1001.49 1002.20 1002.12 1003.77 1006.80 1007.96 1007.63 1008.59 1009.09 1009.38 1010.19 1011.15 1012.99 1014.75 1015.13 1015.45 1015.74 1015.94 1016.11 1016.29 1016.60 1016.64 1016.80 1016.92 1017.06 1017.06 1017.17 1017.17 1017.13 1017.20 1017.15 1017.14 1017.12 1017.05 1017.03 1017.01 1016.94 1016.88 1016.73
1005.52 1003.64 1000.99 999.54 999.81 1000.61 1000.76 1001.35 1001.48 1001.11 1001.76 1002.41 1002.87 1005.23 1007.53 1008.69 1009.01 1009.28 1009.66 1009.81 1010.48 1011.43 1012.82 1014.60 1015.16 1015.57 1015.92 1016.10 1016.29 1016.51 1016.45 1016.72 1016.83 1017.14 1017.28 1017.36 1017.35 1017.44 1017.46 1017.46 1017.47 1017.41 1017.33 1017.21 1017.10 1017.08 1017.00 1016.93 1016.73
1004.28 1002.65 1000.52 999.17 999.67 1000.53 1000.97 1001.26 1001.52 1001.69 1001.97 1003.00 1003.26 1005.81 1007.88 1008.85 1009.17 1009.57 1009.70 1009.89 1010.54 1011.49 1012.66 1014.49 1015.23 1015.52 1015.90 1016.13 1016.27 1016.50 1016.76 1016.89 1017.02 1017.04 1017.24 1017.36 1017.48 1017.56 1017.67 1017.66 1017.68 1017.57 1017.52 1017.36 1017.23 1017.19 1017.12 1016.95 1016.66
1004.10 1001.96 1000.42 999.78 1000.06 1000.56 1001.40 1001.68 1001.23 1002.18 1003.84 1003.07 1003.52 1005.73 1008.20 1009.13 1009.51 1009.65 1010.08 1010.64 1010.89 1012.03 1013.44 1014.45 1014.61 1015.53 1016.00 1016.37 1016.49 1016.63 1016.70 1016.84 1016.95 1017.19 1017.29 1017.39 1017.53 1017.51 1017.54 1017.64 1017.61 1017.64 1017.57 1017.36 1017.26 1017.10 1016.98 1016.81 1016.50
1003.81 1002.55 1000.94 1000.51 1000.40 1001.14 1002.29 1002.08 1002.18 1004.39 1005.28 1004.98 1003.95 1005.75 1008.24 1009.85 1010.06 1010.04 1010.26 1010.62 1010.92 1011.68 1012.44 1013.42 1014.05 1014.26 1014.89 1015.79 1016.55 1016.73 1016.81 1016.98 1017.06 1017.18 1017.19 1017.20 1017.25 1017.30 1017.37 1017.32 1017.21 1017.46 1017.51 1017.37 1017.22 1017.02 1016.73 1016.41 1016.03
1004.30 1002.92 1000.96 1000.16 1001.25 1002.90 1003.49 1003.22 1003.65 1004.93 1005.97 1006.25 1006.97 1007.86 1009.20 1009.89 1009.88 1009.98 1010.28 1010.77 1011.15 1011.29 1011.70 1011.85 1012.41 1013.27 1013.19 1013.98 1015.85 1016.62 1016.71 1016.83 1016.96 1016.98 1017.01 1016.96 1016.37 1015.80 1016.19 1016.21 1016.56 1016.95 1017.11 1017.03 1016.93 1016.70 1016.48 1016.03 1015.39
1003.98 1002.81 1000.80 1000.47 1001.64 1003.97 1005.12 1004.80 1004.12 1005.01 1006.49 1007.93 1008.65 1009.32 1009.64 1009.60 1009.63 1009.82 1010.24 1010.61 1011.08 1011.74 1012.57 1012.38 1012.56 1013.05 1013.25 1013.92 1014.92 1015.08 1015.19 1015.57 1015.76 1015.60 1015.84 1015.96 1015.38 1015.12 1015.30 1015.93 1016.37 1016.42 1016.57 1016.56 1016.33 1016.19 1015.80 1015.37 1014.24
1003.61 1002.43 1001.28 1002.03 1003.47 1004.44 1006.48 1006.99 1006.02 1007.50 1008.54 1009.69 1009.66 1009.98 1010.10 1010.28 1010.50 1010.69 1010.94 1011.05 1011.42 1012.02 1012.69 1013.02 1013.95 1014.11 1013.46 1013.33 1013.90 1013.98 1014.26 1014.62 1014.94 1015.35 1015.52 1015.33 1015.05 1014.80 1014.94 1014.76 1014.62 1015.31 1015.44 1015.34 1015.00 1015.27 1015.04 1013.84 1013.21
1003.41 1003.17 1002.45 1003.88 1005.10 1006.40 1008.02 1008.95 1009.51 1010.51 1011.19 1011.55 1011.92 1012.45 1012.93 1013.32 1013.64 1013.86 1013.93 1013.70 1013.55 1013.22 1013.36 1013.39 1013.86 1014.63 1014.59 1014.01 1014.00 1014.00 1014.06 1014.05 1014.34 1014.49 1015.24 1015.56 1015.26 1015.11 1015.00 1014.51 1014.11 1014.13 1014.11 1013.96 1014.05 1013.44 1013.13 1013.60 1013.49
1003.38 1002.96 1003.48 1005.35 1006.60 1007.71 1008.95 1009.85 1010.94 1012.31 1013.13 1013.60 1014.11 1014.45 1014.80 1015.31 1015.83 1016.20 1016.31 1016.34 1016.24 1015.82 1015.77 1015.12 1014.29 1014.90 1015.05 1015.06 1014.37 1014.26 1014.13 1014.07 1014.21 1014.32 1014.58 1014.95 1014.73 1014.72 1014.66 1014.43 1014.34 1014.10 1013.84 1013.64 1013.48 1013.19 1013.15 1013.34 1013.04
1003.69 1003.45 1003.82 1005.79 1007.39 1008.41 1009.46 1010.66 1011.71 1013.45 1014.21 1014.79 1015.26 1015.82 1016.41 1016.93 1017.30 1017.68 1017.93 1018.01 1017.78 1017.86 1017.49 1016.96 1016.20 1016.38 1016.19 1015.20 1015.06 1014.80 1014.39 1014.28 1014.43 1014.51 1014.39 1014.65 1015.00 1014.77 1014.63 1014.44 1014.27 1014.05 1013.83 1013.57 1013.35 1013.04 1013.14 1013.10 1012.86
1003.41 1004.22 1004.97 1006.03 1007.63 1008.79 1009.76 1011.43 1012.91 1014.00 1014.64 1015.23 1015.89 1016.76 1017.43 1018.04 1018.44 1018.68 1019.09 1019.21 1019.22 1019.04 1018.99 1018.36 1017.77 1017.71 1017.27 1016.46 1015.88 1014.71 1014.67 1014.02 1014.17 1014.28 1014.47 1014.95 1015.18 1014.93 1015.07 1014.74 1014.35 1013.94 1013.73 1013.62 1013.43 1013.32 1013.16 1013.08 1012.69
1003.49 1004.44 1004.99 1006.11 1006.89 1008.09 1009.28 1011.55 1013.76 1014.50 1015.08 1015.74 1016.32 1017.01 1017.90 1018.73 1019.28 1019.59 1019.74 1019.98 1020.12 1020.00 1019.82 1019.52 1019.22 1018.79 1018.12 1017.43 1016.41 1015.42 1014.38 1014.45 1014.40 1014.33 1014.25 1014.38 1014.69 1014.91 1015.04 1014.66 1014.19 1013.78 1013.54 1013.34 1013.16 1012.95 1012.73 1012.49 1012.22
1003.18 1003.14 1003.84 1005.65 1006.38 1007.09 1008.56 1011.41 1014.04 1014.89 1015.47 1016.12 1016.68 1017.23 1017.96 1018.72 1019.56 1020.09 1020.25 1020.38 1020.63 1020.60 1020.52 1020.24 1019.96 1019.56 1018.88 1018.15 1017.17 1015.92 1015.61 1015.21 1015.50 1014.81 1014.49 1014.71 1014.43 1014.53 1014.64 1014.36 1013.97 1013.81 1013.57 1013.31 1013.03 1012.67 1012.50 1012.26 1012.09
1001.84 1002.45 1002.46 1003.86 1006.54 1007.49 1008.61 1011.95 1014.00 1015.00 1015.64 1016.36 1017.03 1017.65 1018.23 1018.95 1019.64 1020.30 1020.61 1020.75 1020.89 1021.04 1021.05 1020.84 1020.60 1020.36 1019.62 1018.72 1017.93 1016.30 1016.66 1016.51 1016.34 1016.64 1016.60 1016.55 1016.23 1016.00 1015.41 1014.02 1013.90 1013.84 1013.76 1013.26 1012.77 1012.46 1012.23 1012.06 1011.80
1001.11 1001.51 1002.54 1005.08 1007.14 1008.12 1010.04 1012.34 1013.85 1014.91 1015.52 1016.34 1017.07 1017.80 1018.50 1019.17 1019.85 1020.29 1020.76 1020.91 1021.06 1021.24 1021.27 1021.31 1021.05 1020.88 1020.28 1019.49 1019.09 1018.27 1018.32 1017.78 1017.91 1017.69 1017.99 1017.32 1017.57 1016.96 1016.47 1015.98 1015.38 1015.24 1014.16 1013.41 1013.16 1012.83 1012.59 1012.19 1011.88
1001.93 1002.22 1003.05 1005.98 1007.86 1008.49 1010.60 1012.24 1013.84 1014.87 1015.64 1016.40 1017.15 1017.94 1018.57 1019.08 1019.84 1020.37 1020.68 1020.84 1021.06 1021.27 1021.35 1021.39 1021.35 1021.08 1020.75 1020.23 1020.03 1019.26 1018.68 1019.04 1018.70 1018.74 1018.30 1018.17 1018.15 1018.10 1017.74 1017.24 1017.36 1016.61 1015.65 1014.70 1013.85 1013.21 1012.63 1011.92 1011.43
1002.44 1002.34 1003.05 1005.50 1007.96 1008.66 1010.29 1011.96 1013.48 1014.91 1015.95 1016.85 1017.54 1018.14 1018.80 1019.39 1019.88 1020.41 1020.64 1020.88 1021.04 1021.34 1021.55 1021.86 1021.89 1021.82 1021.69 1021.36 1020.53 1019.63 1019.09 1018.58 1018.59 1018.57 1018.20 1018.58 1018.34 1017.87 1018.31 1017.74 1018.04 1017.89 1017.09 1016.50 1015.93 1015.11 1013.62 1012.20 1011.72
1001.78 1002.28 1002.94 1005.02 1006.99 1007.01 1008.64 1008.42 1011.77 1013.73 1015.09 1016.23 1017.24 1018.00 1018.65 1019.36 1019.91 1020.36 1020.65 1020.92 1021.05 1021.41 1021.78 1022.13 1022.17 1022.16 1021.87 1021.62 1021.06 1020.74 1020.27 1019.73 1019.64 1019.18 1019.05 1018.86 1018.33 1018.34 1017.79 1018.18 1018.41 1018.25 1017.86 1017.31 1016.79 1016.11 1015.40 1013.52 1012.11
1001.67 1001.62 1002.94 1004.33 1005.93 1005.19 1006.93 1007.82 1008.48 1012.17 1013.85 1015.56 1017.08 1018.18 1018.85 1019.44 1020.00 1020.43 1020.72 1021.10 1021.31 1021.48 1021.91 1022.35 1022.50 1022.46 1022.31 1022.10 1021.96 1021.37 1021.13 1020.70 1020.27 1019.82 1019.53 1018.83 1018.50 1018.09 1017.76 1017.75 1017.73 1017.86 1017.91 1017.56 1016.93 1016.39 1015.57 1014.80 1013.74
1001.72 1002.02 1002.53 1003.75 1005.04 1004.36 1004.40 1006.41 1008.26 1010.14 1012.04 1014.85 1016.95 1018.24 1019.03 1019.39 1019.95 1020.54 1020.83 1021.18 1021.46 1021.57 1021.88 1022.24 1022.49 1022.54 1022.50 1022.41 1022.24 1022.07 1021.85 1021.44 1020.88 1020.49 1019.78 1019.33 1018.77 1018.28 1018.16 1018.47 1018.59 1018.10 1017.57 1017.25 1016.94 1016.30 1015.63 1015.06 1014.37
1002.25 1002.20 1002.22 1003.07 1003.12 1002.63 1003.38 1004.54 1006.69 1009.42 1011.41 1014.34 1016.54 1018.16 1019.09 1019.48 1019.97 1020.40 1020.95 1021.12 1021.47 1021.83 1022.07 1022.09 1022.55 1022.62 1022.72 1022.65 1022.44 1022.21 1022.04 1021.65 1021.10 1021.06 1020.64 1020.36 1019.49 1019.13 1019.04 1019.31 1018.80 1018.44 1018.14 1017.54 1016.72 1016.04 1015.58 1015.13 1014.44
1001.61 1001.44 1001.10 1000.71 1000.67 1000.88 1002.01 1004.29 1008.04 1011.32 1013.68 1015.46 1017.04 1018.35 1019.20 1019.73 1020.28 1020.79 1021.41 1021.60 1021.71 1022.06 1022.42 1022.37 1022.54 1022.54 1022.62 1022.52 1022.36 1022.24 1022.16 1021.88 1021.56 1021.67 1021.44 1020.81 1020.46 1019.94 1019.84 1019.54 1019.32 1018.81 1018.19 1017.41 1016.69 1015.93 1015.11 1014.45 1013.64
1001.47 1001.37 1001.55 1001.21 1000.61 1001.17 1003.22 1007.92 1011.03 1013.11 1014.87 1016.28 1017.33 1018.34 1019.36 1020.12 1020.67 1021.16 1021.63 1021.95 1022.01 1022.25 1022.42 1022.46 1022.55 1022.41 1022.46 1022.45 1022.36 1022.24 1022.20 1022.16 1022.02 1021.74 1021.64 1021.33 1021.04 1020.57 1020.09 1019.77 1019.32 1018.82 1018.29 1017.74 1017.09 1016.16 1015.19 1014.32 1013.42
1002.46 1001.51 1001.22 1001.26 1001.48 1001.76 1002.90 1005.83 1008.97 1012.70 1014.65 1016.35 1017.68 1018.65 1019.74 1020.36 1020.79 1021.32 1021.69 1022.20 1022.24 1022.31 1022.21 1022.41 1022.48 1022.30 1022.28 1022.35 1022.33 1022.21 1022.19 1022.13 1021.90 1021.65 1021.59 1021.51 1021.27 1020.85 1020.49 1020.17 1019.64 1018.93 1018.35 1017.81 1017.25 1016.40 1015.44 1014.49 1013.52
1001.89 1002.08 1002.09 1001.82 1001.58 1002.22 1004.20 1007.50 1010.03 1012.34 1014.17 1016.25 1017.56 1018.98 1019.88 1020.38 1020.82 1021.21 1021.73 1022.15 1022.37 1022.40 1022.34 1022.38 1022.43 1022.14 1022.15 1022.30 1022.26 1022.17 1022.36 1022.30 1022.09 1021.77 1021.50 1021.35 1021.24 1020.91 1020.62 1020.28 1019.71 1019.07 1018.46 1017.80 1017.20 1016.51 1015.61 1014.43 1013.50
1003.18 1002.87 1002.63 1002.45 1002.29 1002.93 1004.22 1009.73 1011.54 1013.43 1015.28 1016.94 1018.14 1019.39 1020.25 1020.75 1021.14 1021.48 1021.90 1022.32 1022.59 1022.69 1022.64 1022.47 1022.56 1022.28 1022.34 1022.45 1022.27 1022.15 1022.38 1022.27 1022.17 1021.74 1021.47 1021.08 1020.99 1020.81 1020.50 1020.13 1019.70 1019.11 1018.55 1017.97 1017.18 1016.22 1015.47 1014.58 1013.53
Wind_Speed
12 15 10 9 10 3 10 11 1 9 10 8 6 13 10 18 16 8 10 8 19 19 18 16 15 13 12 11 11 11 11 10 9 11 11 11 11 11 11 10 9 10 10 10 10 10 9 9 8
14 12 10 10 8 9 8 7 12 12 11 8 5 7 11 17 14 12 13 9 19 18 16 14 15 12 11 10 10 10 9 9 9 9 10 10 10 9 9 8 8 8 8 8 9 8 7 7 7
17 13 12 11 1 10 7 11 4 10 7 3 12 7 13 10 12 8 15 14 19 16 16 15 14 11 9 9 8 8 7 7 9 9 9 7 8 7 7 6 6 6 6 6 6 6 6 7 7
10 11 10 14 13 6 6 7 3 6 10 2 5 17 14 13 9 15 14 16 15 17 16 16 14 12 9 10 9 8 6 6 6 6 5 6 5 5 5 4 3 3 4 4 5 5 6 7 7
10 10 13 5 13 7 6 9 4 6 5 10 11 24 19 15 16 15 14 12 17 14 19 14 15 12 9 8 8 7 7 5 6 4 4 3 3 3 3 2 3 3 4 5 5 6 7 8 8
11 9 14 6 13 7 8 5 6 4 12 5 21 22 15 15 15 14 12 12 19 12 17 13 14 14 9 9 7 8 5 5 4 4 3 2 2 1 1 2 3 4 5 5 6 7 8 9 10
15 12 17 5 9 12 5 1 2 15 29 13 19 24 18 15 13 13 13 11 16 13 14 11 11 12 10 7 6 6 7 6 5 3 2 1 2 2 2 3 4 4 6 6 7 8 9 10 11
13 13 20 6 6 21 20 11 8 25 15 15 13 17 15 13 12 13 13 12 12 14 15 14 12 12 12 12 8 6 6 5 4 3 3 3 5 8 8 8 11 6 6 7 8 9 11 12 14
8 13 13 10 4 18 11 9 10 24 20 23 22 20 16 15 14 13 13 13 10 7 6 12 12 8 8 15 11 9 8 7 6 8 9 8 9 11 12 11 10 10 9 9 12 12 13 16 18
15 12 18 7 12 20 16 12 18 18 23 21 19 17 15 14 11 12 11 10 13 9 9 7 6 7 5 3 11 9 11 10 9 9 9 8 9 6 6 2 9 12 12 13 16 16 17 18 13
16 17 10 6 17 16 16 21 22 20 19 23 19 18 14 14 15 15 15 12 12 8 7 8 4 1 7 5 4 5 5 5 5 6 6 7 6 5 7 6 8 9 16 9 12 12 11 15 6
15 19 12 20 14 20 19 22 23 20 20 19 20 19 19 18 17 16 16 16 19 20 13 5 9 2 4 8 4 2 3 3 4 7 8 6 5 7 7 6 7 5 6 7 6 8 5 6 10
12 13 8 18 17 19 19 19 17 18 17 18 18 18 17 15 15 14 14 13 13 14 14 17 9 6 4 4 5 4 4 4 6 4 6 7 7 6 6 7 7 7 8 7 7 8 5 8 11
14 15 12 20 15 16 19 16 16 15 15 16 17 17 16 16 15 14 14 14 14 14 15 16 15 14 13 7 5 7 4 6 5 6 6 6 7 7 7 7 8 8 8 8 8 8 7 8 10
9 8 6 15 11 18 24 15 14 12 12 14 15 15 15 16 15 15 14 14 14 13 14 15 15 15 13 10 10 6 6 6 5 6 6 7 8 8 8 9 8 8 8 10 8 9 9 10 10
16 15 15 13 18 16 7 13 9 7 9 11 12 12 14 16 15 15 14 14 14 14 15 14 13 15 14 12 9 10 5 6 6 7 6 6 8 9 8 9 9 9 8 9 9 9 9 9 9
15 16 22 10 13 12 15 17 9 8 8 9 9 10 11 13 14 13 14 14 14 14 14 15 15 17 15 12 10 8 12 7 11 9 6 13 7 9 8 10 10 8 9 9 9 9 9 9 9
17 20 19 17 10 11 9 14 12 10 9 8 8 9 9 11 13 12 13 13 13 13 14 14 13 16 15 10 11 9 10 10 9 9 10 15 12 15 15 9 9 8 10 11 10 8 9 9 9
9 15 15 17 10 12 14 14 13 11 10 9 8 8 9 10 11 12 11 12 12 13 14 15 15 15 13 11 11 7 10 8 10 11 15 14 16 16 14 11 11 14 14 11 10 9 10 11 11
10 16 10 11 8 5 14 13 11 10 8 8 9 8 9 9 10 11 12 12 13 13 14 15 16 16 13 9 8 7 6 4 5 8 10 14 13 14 11 12 13 14 13 17 12 9 11 11 10
15 18 14 12 10 7 14 12 13 12 11 10 9 9 9 8 9 10 11 12 12 13 13 14 14 14 13 14 9 9 7 8 9 9 9 12 10 10 9 12 12 12 11 10 13 14 15 11 11
18 17 13 15 17 12 23 6 18 17 13 10 9 8 8 8 9 9 11 11 12 12 11 13 13 14 13 15 12 13 10 10 9 10 11 11 11 12 9 4 6 8 9 13 12 12 14 14 13
15 12 15 16 19 20 24 13 20 20 17 13 9 8 8 8 9 10 10 10 11 11 10 11 12 12 13 13 13 11 12 10 10 10 14 11 12 13 13 13 14 9 6 9 13 13 14 11 13
9 13 15 15 16 18 14 16 16 19 17 15 11 8 6 8 9 9 8 9 10 10 10 11 12 13 13 12 13 13 13 12 11 13 12 12 11 11 13 16 15 15 14 11 10 14 15 13 14
18 13 9 11 15 16 20 21 9 15 16 17 13 10 7 6 7 8 9 9 9 11 11 10 11 11 11 12 11 12 13 12 12 13 12 15 12 11 13 17 15 14 16 16 15 15 15 14 14
14 19 14 15 17 18 24 18 13 16 14 13 11 9 7 6 8 8 9 9 9 10 10 11 10 10 11 11 12 12 13 11 11 12 11 11 11 12 16 15 16 17 18 17 16 14 15 16 14
14 18 20 25 23 16 10 9 8 13 13 13 11 9 7 7 7 7 8 8 8 8 9 10 11 10 11 11 10 10 11 13 12 12 13 12 14 13 16 17 16 15 16 17 18 15 18 17 16
18 15 14 16 19 23 12 16 12 20 15 13 10 9 7 5 6 7 7 8 8 8 8 9 10 10 11 11 11 11 12 13 14 13 14 15 15 16 17 18 18 17 17 17 16 14 18 19 17
12 18 17 16 17 12 14 6 7 17 18 14 11 8 6 6 6 6 7 7 8 8 9 10 10 11 11 12 12 12 13 14 14 13 14 15 16 16 17 17 17 18 17 17 17 17 18 19 18
9 15 16 9 16 18 20 8 8 12 13 12 12 8 7 5 6 6 7 7 7 8 9 10 10 11 12 11 11 11 13 13 14 14 16 16 16 16 16 16 16 16 17 18 19 20 17 19 18
Wind_Direction
238 225 247 258 241 264 58 94 241 132 119 53 74 16 50 38 9 88 111 152 120 124 126 140 133 138 137 132 131 130 128 124 122 122 121 118 112 108 105 102 98 92 86 80 75 67 60 56 51
296 284 250 268 250 157 88 20 78 57 84 95 72 272 60 63 50 90 124 145 121 128 139 136 131 132 135 131 130 131 128 126 117 125 125 121 119 112 104 101 92 84 75 71 67 58 45 37 30
267 269 276 256 344 27 59 108 18 93 112 101 124 46 32 359 51 67 99 138 114 130 115 116 118 119 128 126 127 126 126 131 127 134 130 126 116 110 101 91 83 77 73 68 56 47 27 16 8
288 257 237 247 60 91 33 35 23 169 120 103 346 93 78 28 48 95 131 118 135 105 124 118 121 118 137 139 136 136 138 129 130 134 126 128 115 103 98 91 81 62 44 46 37 24 9 356 346
239 264 266 251 97 63 78 133 273 42 88 69 39 76 78 78 90 111 114 138 107 132 109 131 120 125 139 143 143 145 150 151 142 142 143 131 115 103 86 57 26 10 359 3 6 351 350 337 328
272 250 262 231 86 86 81 103 132 216 85 125 102 82 91 102 100 117 122 106 112 122 118 131 134 137 145 151 154 150 152 152 169 163 160 147 129 99 34 342 330 332 331 336 337 335 331 319 314
260 266 262 351 71 92 38 181 110 55 42 47 87 95 96 99 108 115 103 111 107 108 120 137 139 134 136 139 144 156 161 180 182 180 185 190 245 220 245 273 277 288 296 309 312 313 307 300 293
258 271 267 246 193 57 26 75 27 89 28 52 69 102 110 114 121 121 113 120 129 133 140 141 167 163 168 155 158 170 173 186 192 208 224 236 241 229 224 235 226 239 264 284 285 284 282 277 271
236 267 244 209 179 72 51 55 91 86 71 60 62 84 106 129 138 128 128 128 106 91 90 126 150 140 182 136 152 176 184 197 212 213 216 226 245 192 200 208 151 199 236 251 256 255 259 260 257
236 235 242 79 57 85 56 6 100 84 85 86 90 101 119 129 130 123 114 116 125 113 133 95 53 80 111 133 152 196 178 197 203 208 189 215 242 268 327 113 190 211 226 241 243 243 243 250 258
214 248 255 92 69 83 89 49 79 78 69 48 74 76 77 75 57 62 53 69 77 94 130 122 88 358 300 183 176 193 199 193 199 230 247 237 279 247 229 229 212 214 207 236 209 227 237 237 313
233 235 279 72 86 105 91 79 75 73 69 68 70 70 65 55 49 49 41 27 27 31 27 117 98 99 334 335 195 229 266 213 238 200 200 237 253 237 258 279 297 283 234 253 269 259 283 322 269
213 217 224 96 100 89 84 83 89 80 83 83 79 71 72 68 63 50 49 47 34 34 17 11 32 50 327 257 282 262 267 223 247 232 223 248 257 253 271 276 280 291 297 287 272 272 290 302 279
194 251 174 121 122 112 94 91 104 94 93 83 77 76 70 61 51 52 44 37 37 25 17 12 17 11 357 330 298 302 265 278 240 269 262 236 256 268 271 269 263 267 272 279 282 278 287 306 292
189 144 153 127 143 136 117 88 92 93 92 90 88 84 73 62 52 47 43 40 28 34 20 13 7 8 356 346 342 281 273 294 277 266 247 252 270 268 268 280 285 281 280 280 273 269 259 258 264
202 188 185 175 171 164 248 113 107 105 106 93 90 87 82 69 55 46 42 41 35 30 24 20 17 12 1 360 333 323 304 299 297 297 292 272 261 258 271 274 271 273 276 270 265 268 272 268 272
208 203 208 148 211 182 217 129 126 125 114 103 92 85 78 73 64 47 44 43 35 33 27 23 18 12 4 3 345 307 6 352 7 338 321 343 300 283 272 278 282 282 273 268 268 262 260 267 266
200 226 213 173 154 202 141 118 141 137 130 111 99 87 75 70 61 55 45 43 43 35 34 25 23 18 7 10 357 359 19 354 16 14 7 11 6 5 354 293 267 277 278 269 260 272 285 292 288
279 216 212 110 127 136 139 147 145 147 142 129 111 94 85 72 66 62 52 47 42 40 36 27 26 23 13 17 9 12 355 347 359 355 2 10 359 355 355 344 341 357 318 264 286 288 274 268 270
256 257 100 126 156 193 153 145 146 152 128 121 117 101 90 84 68 55 50 46 43 37 33 28 25 22 21 1 5 3 349 304 7 351 352 11 354 347 349 354 337 343 339 338 318 299 281 273 265
235 237 164 190 168 180 161 162 166 153 145 131 115 107 93 72 68 60 53 46 41 40 34 31 27 21 26 4 11 6 0 349 0 347 350 355 336 345 346 359 341 338 340 328 326 323 311 285 277
239 216 208 181 184 197 202 210 180 169 159 152 136 106 93 82 76 64 57 46 44 43 42 35 29 22 23 20 14 8 2 359 351 350 357 328 344 339 337 4 340 343 330 324 321 321 314 318 290
251 209 224 173 216 249 182 258 155 172 174 160 137 121 105 94 75 64 57 51 42 45 44 43 34 29 26 24 18 7 10 352 349 347 338 339 349 337 338 347 343 335 320 309 304 308 320 313 308
256 251 205 187 223 243 219 212 155 182 178 146 140 121 101 85 77 68 56 55 44 37 37 46 29 31 25 23 22 17 9 354 348 357 342 350 331 338 346 347 332 327 323 320 312 305 302 299 299
239 224 196 214 224 239 240 206 50 125 150 154 147 135 117 98 72 57 44 41 41 32 28 28 27 30 24 25 22 19 13 6 349 355 350 335 343 342 339 336 328 326 320 312 310 304 298 290 283
214 223 233 207 222 231 211 201 143 128 119 126 134 132 122 94 77 59 51 32 31 32 27 23 21 21 20 20 14 24 17 10 4 360 351 345 338 333 332 334 323 319 316 314 312 304 300 296 291
233 231 236 271 286 277 151 91 113 140 147 152 143 136 113 89 75 60 60 30 31 24 31 23 14 15 21 12 8 12 6 13 5 359 358 357 346 338 342 336 330 325 318 313 311 304 304 297 290
252 269 248 230 259 268 225 178 108 173 162 155 153 132 114 101 85 67 49 36 20 14 20 24 10 9 12 9 8 7 4 359 359 1 2 357 351 347 345 342 336 330 329 322 311 300 300 300 299
203 233 251 280 280 279 280 75 113 163 158 161 134 125 121 103 77 64 47 45 15 8 15 20 6 4 8 6 0 6 5 355 358 353 355 356 348 349 346 341 335 336 331 326 321 309 301 286 284
280 293 297 277 261 249 271 90 92 126 126 138 131 131 103 72 52 45 54 34 16 10 9 11 360 3 5 359 354 5 358 356 348 352 350 351 350 345 343 343 337 332 329 326 319 313 307 297 296